TAP478 LEBL-LEPA

Flight info

Callsign TAP478
Flight time 0h 40m
Altitude 24000
Route LARPA N859 TOLSO
Aircraft A321/M-SDE3FGHIRWY/LB1

Departure

Time 2026-05-05 15:43
Airport Josep Tarradellas Barcelona-El Prat Airport (LEBL)

Arrival

Time 2026-05-05 16:23
Airport Palma de Mallorca Airport (LEPA)
Time Latitude Longitude Altitude Speed Heading
2026-05-05 15:27 41.29024 2.08002 17 ft 0 kts 338°
2026-05-05 15:33 41.29015 2.08007 17 ft 2 kts 337°
2026-05-05 15:34 41.29000 2.08016 18 ft 2 kts 336°
2026-05-05 15:34 41.28985 2.08025 18 ft 2 kts 333°
2026-05-05 15:34 41.28970 2.08035 18 ft 2 kts 328°
2026-05-05 15:34 41.28957 2.08047 19 ft 2 kts 309°
2026-05-05 15:35 41.28951 2.08067 20 ft 2 kts 251°
2026-05-05 15:35 41.28952 2.08075 20 ft 0 kts 247°
2026-05-05 15:37 41.28951 2.08071 19 ft 1 kts 248°
2026-05-05 15:37 41.28946 2.08052 20 ft 3 kts 248°
2026-05-05 15:37 41.28914 2.08006 17 ft 9 kts 192°
2026-05-05 15:38 41.28849 2.08021 17 ft 10 kts 149°
2026-05-05 15:38 41.28785 2.08071 17 ft 11 kts 155°
2026-05-05 15:38 41.28747 2.08148 17 ft 11 kts 76°
2026-05-05 15:38 41.28730 2.08231 17 ft 10 kts 163°
2026-05-05 15:39 41.28708 2.08279 17 ft 7 kts 64°
2026-05-05 15:39 41.28731 2.08340 17 ft 8 kts 64°
2026-05-05 15:39 41.28755 2.08409 19 ft 8 kts 65°
2026-05-05 15:39 41.28779 2.08481 20 ft 9 kts 65°
2026-05-05 15:40 41.28825 2.08615 18 ft 20 kts 65°
2026-05-05 15:40 41.28885 2.08791 17 ft 21 kts 66°
2026-05-05 15:40 41.28948 2.08974 19 ft 22 kts 65°
2026-05-05 15:40 41.29013 2.09162 17 ft 23 kts 65°
2026-05-05 15:41 41.29077 2.09356 17 ft 23 kts 66°
2026-05-05 15:41 41.29144 2.09552 17 ft 24 kts 65°
2026-05-05 15:41 41.29214 2.09752 17 ft 23 kts 65°
2026-05-05 15:41 41.29266 2.09904 19 ft 18 kts 66°
2026-05-05 15:42 41.29264 2.10061 17 ft 18 kts 109°
2026-05-05 15:42 41.29235 2.10194 16 ft 13 kts 81°
2026-05-05 15:42 41.29237 2.10267 15 ft 4 kts 159°
2026-05-05 15:42 41.29200 2.10242 15 ft 9 kts 223°
2026-05-05 15:43 41.29095 2.09961 18 ft 71 kts 245°
2026-05-05 15:43 41.28782 2.09056 16 ft 141 kts 245°
2026-05-05 15:43 41.28308 2.07671 156 ft 181 kts 244°
2026-05-05 15:43 41.27635 2.06242 848 ft 182 kts 216°
2026-05-05 15:44 41.26424 2.05743 1409 ft 195 kts 186°
2026-05-05 15:44 41.25031 2.05686 1840 ft 209 kts 181°
2026-05-05 15:44 41.23559 2.05691 2511 ft 214 kts 182°
2026-05-05 15:44 41.22060 2.05699 3314 ft 217 kts 182°
2026-05-05 15:45 41.20546 2.05695 4123 ft 219 kts 182°
2026-05-05 15:45 41.19015 2.05678 4948 ft 221 kts 183°
2026-05-05 15:45 41.17485 2.05492 5726 ft 222 kts 198°
2026-05-05 15:45 41.16025 2.04636 6288 ft 235 kts 208°
2026-05-05 15:46 41.14555 2.03634 7033 ft 239 kts 209°
2026-05-05 15:46 41.13073 2.02616 7847 ft 241 kts 209°
2026-05-05 15:46 41.11579 2.01588 8676 ft 243 kts 209°
2026-05-05 15:46 41.10076 2.00558 9509 ft 245 kts 209°
2026-05-05 15:47 41.08555 1.99518 10282 ft 246 kts 209°
2026-05-05 15:47 41.07537 1.98849 10782 ft 248 kts 205°
2026-05-05 15:47 41.05210 1.98063 11336 ft 274 kts 191°
2026-05-05 15:47 41.03216 1.98178 11544 ft 304 kts 167°
2026-05-05 15:48 41.01252 1.99535 11725 ft 334 kts 150°
2026-05-05 15:48 40.99294 2.01304 12186 ft 345 kts 149°
2026-05-05 15:48 40.97319 2.03152 12887 ft 350 kts 149°
2026-05-05 15:48 40.95329 2.05025 13632 ft 353 kts 149°
2026-05-05 15:49 40.93343 2.06883 14286 ft 356 kts 150°
2026-05-05 15:49 40.91311 2.08772 14915 ft 359 kts 150°
2026-05-05 15:49 40.89247 2.10674 15560 ft 363 kts 151°
2026-05-05 15:49 40.87159 2.12584 16201 ft 367 kts 152°
2026-05-05 15:50 40.85045 2.14509 16836 ft 371 kts 152°
2026-05-05 15:50 40.82908 2.16450 17464 ft 375 kts 152°
2026-05-05 15:50 40.80747 2.18413 18092 ft 379 kts 152°
2026-05-05 15:50 40.78564 2.20394 18627 ft 383 kts 153°
2026-05-05 15:51 40.76365 2.22392 18833 ft 384 kts 153°
2026-05-05 15:51 40.74164 2.24397 18886 ft 384 kts 153°
2026-05-05 15:51 40.71961 2.26407 18892 ft 384 kts 153°
2026-05-05 15:51 40.69765 2.28409 18893 ft 384 kts 153°
2026-05-05 15:52 40.67565 2.30406 18892 ft 384 kts 153°
2026-05-05 15:52 40.65362 2.32402 18894 ft 384 kts 153°
2026-05-05 15:52 40.63222 2.34547 18894 ft 388 kts 149°
2026-05-05 15:52 40.61130 2.36795 18893 ft 389 kts 147°
2026-05-05 15:53 40.59059 2.39092 18895 ft 389 kts 147°
2026-05-05 15:53 40.57000 2.41409 18893 ft 390 kts 147°
2026-05-05 15:53 40.54943 2.43727 18897 ft 390 kts 147°
2026-05-05 15:53 40.52875 2.46037 18897 ft 390 kts 147°
2026-05-05 15:54 40.50805 2.48334 18896 ft 390 kts 147°
2026-05-05 15:54 40.48725 2.50622 18897 ft 389 kts 147°
2026-05-05 15:54 40.46647 2.52901 18900 ft 389 kts 147°
2026-05-05 15:54 40.44567 2.55178 18900 ft 390 kts 147°
2026-05-05 15:55 40.42484 2.57457 18898 ft 390 kts 147°
2026-05-05 15:55 40.40420 2.59715 18888 ft 381 kts 147°
2026-05-05 15:55 40.38423 2.61912 18685 ft 369 kts 147°
2026-05-05 15:55 40.36469 2.64059 18304 ft 365 kts 147°
2026-05-05 15:56 40.34551 2.66159 17818 ft 362 kts 147°
2026-05-05 15:56 40.32600 2.68293 17312 ft 359 kts 147°
2026-05-05 15:56 40.30689 2.70379 16835 ft 356 kts 147°
2026-05-05 15:56 40.28789 2.72447 16353 ft 353 kts 147°
2026-05-05 15:57 40.26904 2.74493 15881 ft 351 kts 147°
2026-05-05 15:57 40.25032 2.76523 15424 ft 348 kts 147°
2026-05-05 15:57 40.23178 2.78536 14965 ft 345 kts 146°
2026-05-05 15:57 40.21365 2.80513 14519 ft 343 kts 146°
2026-05-05 15:58 40.19541 2.82502 14090 ft 340 kts 146°
2026-05-05 15:58 40.17731 2.84471 13665 ft 337 kts 146°
2026-05-05 15:58 40.15933 2.86421 13192 ft 335 kts 146°
2026-05-05 15:58 40.14149 2.88353 12720 ft 332 kts 146°
2026-05-05 15:59 40.12376 2.90273 12266 ft 329 kts 145°
2026-05-05 15:59 40.10619 2.92174 11814 ft 327 kts 145°
2026-05-05 15:59 40.08875 2.94062 11377 ft 325 kts 145°
2026-05-05 15:59 40.07141 2.95938 10949 ft 322 kts 145°
2026-05-05 16:00 40.05422 2.97796 10534 ft 320 kts 144°
2026-05-05 16:00 40.03716 2.99639 10121 ft 317 kts 144°
2026-05-05 16:00 40.02025 3.01465 9801 ft 311 kts 144°
2026-05-05 16:00 40.00409 3.03214 9606 ft 295 kts 144°
2026-05-05 16:01 39.98849 3.04898 9366 ft 288 kts 144°
2026-05-05 16:01 39.97264 3.06444 9003 ft 282 kts 156°
2026-05-05 16:01 39.95439 3.07217 8616 ft 273 kts 178°
2026-05-05 16:01 39.93576 3.07356 8212 ft 272 kts 181°
2026-05-05 16:02 39.91687 3.07473 7828 ft 271 kts 181°
2026-05-05 16:02 39.89802 3.07589 7465 ft 271 kts 180°
2026-05-05 16:02 39.87923 3.07703 7105 ft 270 kts 181°
2026-05-05 16:02 39.86049 3.07806 6754 ft 269 kts 184°
2026-05-05 16:03 39.84248 3.07357 6401 ft 262 kts 205°
2026-05-05 16:03 39.82590 3.06389 6049 ft 261 kts 207°
2026-05-05 16:03 39.80938 3.05407 5672 ft 261 kts 207°
2026-05-05 16:03 39.79288 3.04422 5330 ft 260 kts 207°
2026-05-05 16:04 39.77685 3.03467 5204 ft 246 kts 207°
2026-05-05 16:04 39.76162 3.02558 5067 ft 236 kts 207°
2026-05-05 16:04 39.74699 3.01688 4954 ft 226 kts 207°
2026-05-05 16:04 39.73294 3.00854 4763 ft 219 kts 207°
2026-05-05 16:05 39.71910 3.00032 4461 ft 218 kts 208°
2026-05-05 16:05 39.70530 2.99211 4147 ft 217 kts 207°
2026-05-05 16:05 39.69165 2.98403 3884 ft 214 kts 207°
2026-05-05 16:05 39.68247 2.97859 3630 ft 214 kts 207°
2026-05-05 16:06 39.66912 2.97068 3319 ft 213 kts 207°
2026-05-05 16:06 39.65568 2.96259 3118 ft 208 kts 211°
2026-05-05 16:06 39.64480 2.95084 3011 ft 203 kts 233°
2026-05-05 16:06 39.63750 2.93602 2964 ft 188 kts 239°
2026-05-05 16:07 39.63086 2.92189 2842 ft 180 kts 239°
2026-05-05 16:07 39.62436 2.90807 2622 ft 178 kts 239°
2026-05-05 16:07 39.61793 2.89438 2391 ft 178 kts 239°
2026-05-05 16:07 39.61157 2.88087 2164 ft 175 kts 239°
2026-05-05 16:08 39.60524 2.86741 1922 ft 176 kts 239°
2026-05-05 16:08 39.59915 2.85448 1700 ft 160 kts 239°
2026-05-05 16:08 39.59340 2.84227 1476 ft 156 kts 237°
2026-05-05 16:08 39.58806 2.83092 1288 ft 142 kts 238°
2026-05-05 16:09 39.58300 2.82020 1096 ft 137 kts 237°
2026-05-05 16:09 39.57809 2.80978 910 ft 135 kts 237°
2026-05-05 16:09 39.57316 2.79933 739 ft 135 kts 236°
2026-05-05 16:09 39.56830 2.78906 570 ft 134 kts 238°
2026-05-05 16:10 39.56344 2.77874 436 ft 135 kts 237°
2026-05-05 16:10 39.55853 2.76830 205 ft 133 kts 238°
2026-05-05 16:10 39.55374 2.75810 40 ft 131 kts 237°
2026-05-05 16:10 39.54941 2.74907 29 ft 126 kts 238°
2026-05-05 16:11 39.54439 2.73846 279 ft 151 kts 238°
2026-05-05 16:11 39.51531 2.71424 1547 ft 200 kts 166°
2026-05-05 16:12 39.50382 2.72502 1988 ft 212 kts 129°
2026-05-05 16:12 39.49815 2.76295 3228 ft 222 kts 92°
2026-05-05 16:13 39.50389 2.82487 3997 ft 239 kts 72°
2026-05-05 16:13 39.50878 2.84545 4002 ft 240 kts 72°
2026-05-05 16:13 39.51382 2.86609 4006 ft 241 kts 72°
2026-05-05 16:14 39.52396 2.90743 4002 ft 242 kts 69°
2026-05-05 16:14 39.53825 2.94671 4002 ft 240 kts 62°
2026-05-05 16:15 39.55348 2.98524 4004 ft 240 kts 62°
2026-05-05 16:15 39.56864 3.02391 3995 ft 240 kts 62°
2026-05-05 16:16 39.58367 3.06226 3996 ft 240 kts 58°
2026-05-05 16:16 39.60997 3.08213 3728 ft 216 kts 352°
2026-05-05 16:17 39.63077 3.06035 3223 ft 200 kts 281°
2026-05-05 16:17 39.63279 3.04251 3104 ft 201 kts 273°
2026-05-05 16:18 39.63494 3.00730 2654 ft 188 kts 272°
2026-05-05 16:18 39.63598 2.99034 2510 ft 189 kts 271°
2026-05-05 16:18 39.63816 2.95711 2519 ft 175 kts 273°
2026-05-05 16:19 39.63827 2.94176 2503 ft 168 kts 257°
2026-05-05 16:19 39.63376 2.92800 2505 ft 165 kts 238°
2026-05-05 16:19 39.62181 2.90264 2464 ft 164 kts 237°
2026-05-05 16:20 39.61006 2.87765 2070 ft 158 kts 238°
2026-05-05 16:20 39.59882 2.85378 1686 ft 153 kts 239°
2026-05-05 16:21 39.58781 2.83040 1276 ft 151 kts 237°
2026-05-05 16:22 39.57220 2.79729 684 ft 138 kts 238°
2026-05-05 16:22 39.56409 2.78009 396 ft 135 kts 237°
2026-05-05 16:23 39.55446 2.75931 35 ft 134 kts 233°
2026-05-05 16:23 39.54991 2.75006 26 ft 101 kts 238°
2026-05-05 16:23 39.54587 2.74137 29 ft 32 kts 249°
2026-05-05 16:24 39.54550 2.73908 31 ft 8 kts 270°
2026-05-05 16:24 39.54550 2.73863 31 ft 0 kts 269°
2026-05-05 16:24 39.54549 2.73832 31 ft 4 kts 269°
2026-05-05 16:25 39.54549 2.73791 31 ft 5 kts 269°
2026-05-05 16:25 39.54560 2.73672 32 ft 8 kts 300°
2026-05-05 16:25 39.54608 2.73624 32 ft 10 kts 318°
2026-05-05 16:26 39.54579 2.73504 32 ft 10 kts 238°
2026-05-05 16:26 39.54498 2.73331 32 ft 9 kts 237°
2026-05-05 16:27 39.54507 2.73285 34 ft 5 kts 339°
2026-05-05 16:27 39.54536 2.73276 33 ft 0 kts 346°
2026-05-05 16:28 39.55775 2.76653 151 ft 135 kts 237°
2026-05-05 16:28 39.55299 2.75613 26 ft 131 kts 228°
2026-05-05 16:28 39.55663 2.76409 111 ft 134 kts 233°
2026-05-05 16:29 39.55209 2.75427 25 ft 123 kts 230°
2026-05-05 16:29 39.54829 2.74665 27 ft 76 kts 239°